User: anonymous   Login
Location: Barnston
(51.8500°N, 0.4000°E)
Time: 22:18:37
(UTC+00:00)
Language:

CZ-2C R/B - Orbit

View from above orbital plane
View from above orbital plane
View from above satellite
View from above satellite

Ground track
Ground track

The orbit data is extracted from the following two-line orbital elements,

1 28480U 04046B   24055.58456526  .00000264  00000-0  11431-3 0  9998
2 28480  98.1494   7.5112 0140514 194.8431 164.8606 14.26254832  2404
Epoch (UTC): 24 February 2024 14:01:46
Eccentricity: 0.0140514
inclination: 98.1494°
perigee height: 703 km
apogee height: 905 km
right ascension of ascending node: 7.5112°
argument of perigee: 194.8431°
revolutions per day: 14.26254832
mean anomaly at epoch: 164.8606°
orbit number at epoch: 240

The dashed part of the orbit path shows where the satellite is in the earth's shadow,  

DLR